Volver al catálogo

STARLINK-34480

ActivoComunicacionesVLEO
NORAD 64427·PAYLOAD·🇺🇸 United States

Lanzado Jun 17, 2025 desde Vandenberg Space Force Base

Loading…

Próximos Pases (próximas 24 horas)

TLE

ActualizadoSource: CelesTrak SupGP

Época: Sep 15, 2026, 02:49 UTC

1 64427C 25129R   26258.11784722  .00050779  00000+0  17665-2 0  2589
2 64427  69.9998 315.1226 0003244 268.3961 132.3844 15.29551950    11

Sigue STARLINK-34480 en tiempo real con AllMySat

Download on the App Store